Time,TemperatureF,DewpointF,PressureIn,WindDirection,WindDirectionDegrees,WindSpeedMPH,WindSpeedGustMPH,Humidity,HourlyPrecipIn,Conditions,Clouds,dailyrainin,SoftwareType,DateUTC
2013-10-14 00:06:00,63.6,58.7,30.15,WNW,288,0.0,0.0,84,0.00,,,0.00,Wunderground v.1.15,2013-10-13 21:06:00,
2013-10-14 00:16:00,63.5,58.6,30.31,WNW,289,0.0,0.0,84,0.00,,,0.00,Wunderground v.1.15,2013-10-13 21:16:00,
2013-10-14 00:26:00,63.3,58.4,29.87,WNW,288,0.0,0.0,84,0.00,,,0.00,Wunderground v.1.15,2013-10-13 21:26:00,
2013-10-14 00:36:00,63.0,58.1,30.30,WNW,289,0.0,0.0,84,0.00,,,0.00,Wunderground v.1.15,2013-10-13 21:36:00,
2013-10-14 00:46:00,63.1,58.2,30.09,WNW,289,0.0,0.0,84,0.00,,,0.00,Wunderground v.1.15,2013-10-13 21:46:00,
2013-10-14 00:56:00,63.4,58.1,29.87,WNW,289,0.0,0.0,83,0.00,,,0.00,Wunderground v.1.15,2013-10-13 21:56:00,
2013-10-14 01:06:00,63.7,58.4,29.87,WNW,288,0.0,0.0,83,0.00,,,0.00,Wunderground v.1.15,2013-10-13 22:06:00,
2013-10-14 01:16:00,63.8,58.9,29.87,WNW,288,0.0,0.0,84,0.00,,,0.00,Wunderground v.1.15,2013-10-13 22:16:00,
2013-10-14 01:26:00,64.0,59.1,30.20,WNW,289,0.0,0.0,84,0.00,,,0.00,Wunderground v.1.15,2013-10-13 22:26:00,
2013-10-14 01:36:00,64.4,59.5,29.93,WNW,289,0.0,0.0,84,0.00,,,0.00,Wunderground v.1.15,2013-10-13 22:36:00,
2013-10-14 01:46:00,64.5,59.9,29.93,WNW,289,0.0,0.0,85,0.00,,,0.00,Wunderground v.1.15,2013-10-13 22:46:00,
2013-10-14 01:56:00,64.4,59.5,29.87,WNW,288,0.0,0.0,84,0.00,,,0.00,Wunderground v.1.15,2013-10-13 22:56:00,
2013-10-14 02:06:00,64.4,59.8,29.87,WNW,288,0.0,0.0,85,0.00,,,0.00,Wunderground v.1.15,2013-10-13 23:06:00,
2013-10-14 02:16:00,64.4,59.8,29.87,WNW,288,0.0,0.0,85,0.00,,,0.00,Wunderground v.1.15,2013-10-13 23:16:00,
2013-10-14 02:26:00,64.2,59.9,29.87,WNW,288,0.0,0.0,86,0.00,,,0.00,Wunderground v.1.15,2013-10-13 23:26:00,
2013-10-14 02:36:00,64.3,60.0,29.86,WNW,288,0.0,0.0,86,0.00,,,0.00,Wunderground v.1.15,2013-10-13 23:36:00,
2013-10-14 02:46:00,64.0,59.7,29.87,WNW,289,0.0,0.0,86,0.00,,,0.00,Wunderground v.1.15,2013-10-13 23:46:00,
2013-10-14 02:56:00,63.7,59.4,29.87,WNW,289,0.0,0.0,86,0.00,,,0.00,Wunderground v.1.15,2013-10-13 23:56:00,
2013-10-14 03:06:00,63.5,59.6,29.86,WNW,289,0.0,0.0,87,0.00,,,0.00,Wunderground v.1.15,2013-10-14 00:06:00,
2013-10-14 03:16:00,63.3,59.4,29.86,WNW,289,0.0,0.0,87,0.00,,,0.00,Wunderground v.1.15,2013-10-14 00:16:00,
2013-10-14 03:26:00,63.3,59.4,29.86,WNW,288,0.0,0.0,87,0.00,,,0.00,Wunderground v.1.15,2013-10-14 00:26:00,
2013-10-14 03:36:00,63.1,59.2,29.86,WNW,288,0.0,1.0,87,0.00,,,0.00,Wunderground v.1.15,2013-10-14 00:36:00,
2013-10-14 03:46:00,62.7,58.8,29.86,WNW,288,0.0,0.0,87,0.00,,,0.00,Wunderground v.1.15,2013-10-14 00:46:00,
2013-10-14 03:56:00,62.7,58.8,29.86,WNW,288,0.0,0.0,87,0.00,,,0.00,Wunderground v.1.15,2013-10-14 00:56:00,
2013-10-14 04:06:00,62.7,58.8,29.91,WNW,289,0.0,0.0,87,0.00,,,0.00,Wunderground v.1.15,2013-10-14 01:06:00,
2013-10-14 04:16:00,62.5,58.6,29.91,WNW,289,0.0,0.0,87,0.00,,,0.00,Wunderground v.1.15,2013-10-14 01:16:00,
2013-10-14 04:26:00,62.2,58.0,29.91,WNW,289,0.0,0.0,86,0.00,,,0.00,Wunderground v.1.15,2013-10-14 01:26:00,
2013-10-14 04:36:00,62.0,58.1,29.91,WNW,288,0.0,0.0,87,0.00,,,0.00,Wunderground v.1.15,2013-10-14 01:36:00,
2013-10-14 04:46:00,62.0,58.1,29.92,WNW,289,0.0,0.0,87,0.00,,,0.00,Wunderground v.1.15,2013-10-14 01:46:00,
2013-10-14 04:56:00,62.1,58.2,29.90,WNW,289,0.0,0.0,87,0.00,,,0.00,Wunderground v.1.15,2013-10-14 01:56:00,
2013-10-14 05:06:00,61.9,58.0,29.92,WNW,288,0.0,0.0,87,0.00,,,0.00,Wunderground v.1.15,2013-10-14 02:06:00,
2013-10-14 05:16:00,62.0,58.1,29.92,WNW,288,0.0,0.0,87,0.00,,,0.00,Wunderground v.1.15,2013-10-14 02:16:00,
2013-10-14 05:26:00,62.1,58.5,29.92,WNW,288,0.0,0.0,88,0.00,,,0.00,Wunderground v.1.15,2013-10-14 02:26:00,
2013-10-14 05:36:00,62.2,58.6,29.87,WNW,289,0.0,0.0,88,0.00,,,0.00,Wunderground v.1.15,2013-10-14 02:36:00,
2013-10-14 05:46:00,62.2,58.6,29.92,WNW,288,0.0,0.0,88,0.00,,,0.00,Wunderground v.1.15,2013-10-14 02:46:00,
2013-10-14 05:56:00,62.3,58.7,29.88,WNW,289,0.0,0.0,88,0.00,,,0.00,Wunderground v.1.15,2013-10-14 02:56:00,
2013-10-14 06:06:00,62.4,58.8,29.90,WNW,289,0.0,0.0,88,0.00,,,0.00,Wunderground v.1.15,2013-10-14 03:06:00,
2013-10-14 06:16:00,62.1,58.2,29.87,WNW,288,0.0,0.0,87,0.00,,,0.00,Wunderground v.1.15,2013-10-14 03:16:00,
2013-10-14 06:26:00,61.8,57.9,29.92,WNW,288,0.0,0.0,87,0.00,,,0.00,Wunderground v.1.15,2013-10-14 03:26:00,
2013-10-14 06:36:00,61.8,57.9,29.89,WNW,288,0.0,0.0,87,0.00,,,0.00,Wunderground v.1.15,2013-10-14 03:36:00,
2013-10-14 06:46:00,62.0,58.1,29.91,WNW,288,0.0,0.0,87,0.00,,,0.00,Wunderground v.1.15,2013-10-14 03:46:00,
2013-10-14 06:56:00,62.2,58.3,29.88,WNW,288,0.0,0.0,87,0.00,,,0.00,Wunderground v.1.15,2013-10-14 03:56:00,
2013-10-14 07:06:00,62.4,58.5,29.90,WNW,289,0.0,0.0,87,0.00,,,0.00,Wunderground v.1.15,2013-10-14 04:06:00,
2013-10-14 07:16:00,62.9,59.3,29.90,WNW,289,0.0,0.0,88,0.00,,,0.00,Wunderground v.1.15,2013-10-14 04:16:00,
2013-10-14 07:26:00,63.5,59.9,29.89,WNW,289,0.0,0.0,88,0.00,,,0.00,Wunderground v.1.15,2013-10-14 04:26:00,
2013-10-14 07:36:00,64.3,60.7,29.90,WNW,289,0.0,0.0,88,0.00,,,0.00,Wunderground v.1.15,2013-10-14 04:36:00,
2013-10-14 07:46:00,65.5,62.2,29.90,WNW,289,0.0,0.0,89,0.00,,,0.00,Wunderground v.1.15,2013-10-14 04:46:00,
2013-10-14 07:56:00,66.9,63.6,29.90,WSW,242,0.0,0.0,89,0.00,,,0.00,Wunderground v.1.15,2013-10-14 04:56:00,
2013-10-14 08:06:00,67.7,64.3,29.90,SE,141,0.0,0.0,89,0.00,,,0.00,Wunderground v.1.15,2013-10-14 05:06:00,
2013-10-14 08:16:00,68.3,64.9,29.92,South,172,1.0,1.0,89,0.00,,,0.00,Wunderground v.1.15,2013-10-14 05:16:00,
2013-10-14 08:26:00,69.0,65.9,29.93,South,180,1.0,3.0,90,0.00,,,0.00,Wunderground v.1.15,2013-10-14 05:26:00,
2013-10-14 08:36:00,69.9,66.8,29.92,South,180,0.0,0.0,90,0.00,,,0.00,Wunderground v.1.15,2013-10-14 05:36:00,
2013-10-14 08:46:00,70.6,66.9,29.94,South,180,1.0,1.0,88,0.00,,,0.00,Wunderground v.1.15,2013-10-14 05:46:00,
2013-10-14 08:56:00,71.5,67.4,29.91,South,180,0.0,0.0,87,0.00,,,0.00,Wunderground v.1.15,2013-10-14 05:56:00,
2013-10-14 09:06:00,72.4,68.0,29.91,South,178,0.0,2.0,86,0.00,,,0.00,Wunderground v.1.15,2013-10-14 06:06:00,
2013-10-14 09:16:00,73.3,68.5,29.92,South,178,0.0,0.0,85,0.00,,,0.00,Wunderground v.1.15,2013-10-14 06:16:00,
2013-10-14 09:26:00,74.0,68.2,29.97,SSW,202,1.0,1.0,82,0.00,,,0.00,Wunderground v.1.15,2013-10-14 06:26:00,
2013-10-14 09:36:00,74.6,68.4,29.93,South,172,1.0,1.0,81,0.00,,,0.00,Wunderground v.1.15,2013-10-14 06:36:00,
2013-10-14 09:46:00,75.3,68.3,29.97,South,172,0.0,0.0,79,0.00,,,0.00,Wunderground v.1.15,2013-10-14 06:46:00,
2013-10-14 09:56:00,75.5,68.2,29.97,South,172,1.0,1.0,78,0.00,,,0.00,Wunderground v.1.15,2013-10-14 06:56:00,
2013-10-14 10:06:00,76.7,68.6,29.97,South,173,0.0,0.0,76,0.00,,,0.00,Wunderground v.1.15,2013-10-14 07:06:00,
2013-10-14 10:16:00,76.7,67.8,29.97,South,174,0.0,0.0,74,0.00,,,0.00,Wunderground v.1.15,2013-10-14 07:16:00,
2013-10-14 10:26:00,76.6,67.7,29.97,South,173,0.0,0.0,74,0.00,,,0.00,Wunderground v.1.15,2013-10-14 07:26:00,
2013-10-14 10:36:00,77.9,67.7,29.92,WSW,255,1.0,1.0,71,0.00,,,0.00,Wunderground v.1.15,2013-10-14 07:36:00,
2013-10-14 10:46:00,77.4,66.8,29.92,SSW,194,1.0,1.0,70,0.00,,,0.00,Wunderground v.1.15,2013-10-14 07:46:00,
2013-10-14 10:56:00,77.1,66.6,29.92,SSW,193,0.0,2.0,70,0.00,,,0.00,Wunderground v.1.15,2013-10-14 07:56:00,
2013-10-14 11:06:00,78.3,65.6,29.92,SSW,192,1.0,1.0,65,0.00,,,0.00,Wunderground v.1.15,2013-10-14 08:06:00,
2013-10-14 11:16:00,79.3,65.6,29.91,SSW,192,0.0,0.0,63,0.00,,,0.00,Wunderground v.1.15,2013-10-14 08:16:00,
2013-10-14 11:26:00,80.5,66.7,29.91,West,268,1.0,1.0,63,0.00,,,0.00,Wunderground v.1.15,2013-10-14 08:26:00,
2013-10-14 11:36:00,80.4,67.1,29.92,WNW,298,2.0,2.0,64,0.00,,,0.00,Wunderground v.1.15,2013-10-14 08:36:00,
2013-10-14 11:46:00,79.6,66.3,29.91,WNW,294,1.0,1.0,64,0.00,,,0.00,Wunderground v.1.15,2013-10-14 08:46:00,
2013-10-14 11:56:00,80.0,66.3,29.97,West,277,2.0,3.0,63,0.00,,,0.00,Wunderground v.1.15,2013-10-14 08:56:00,
2013-10-14 12:06:00,80.5,65.8,29.91,WNW,286,2.0,2.0,61,0.00,,,0.00,Wunderground v.1.15,2013-10-14 09:06:00,
2013-10-14 12:16:00,80.6,66.4,29.96,West,275,2.0,5.0,62,0.00,,,0.00,Wunderground v.1.15,2013-10-14 09:16:00,
2013-10-14 12:26:00,81.6,67.3,30.07,West,274,3.0,4.0,62,0.00,,,0.00,Wunderground v.1.15,2013-10-14 09:26:00,
2013-10-14 12:36:00,81.4,67.6,30.08,West,276,4.0,4.0,63,0.00,,,0.00,Wunderground v.1.15,2013-10-14 09:36:00,
2013-10-14 12:46:00,81.1,66.8,30.18,West,280,3.0,3.0,62,0.00,,,0.00,Wunderground v.1.15,2013-10-14 09:46:00,
2013-10-14 12:56:00,81.9,67.6,30.17,West,280,3.0,5.0,62,0.00,,,0.00,Wunderground v.1.15,2013-10-14 09:56:00,
2013-10-14 13:06:00,81.7,66.9,30.07,West,271,3.0,5.0,61,0.00,,,0.00,Wunderground v.1.15,2013-10-14 10:06:00,
2013-10-14 13:16:00,81.5,67.2,29.96,West,261,4.0,4.0,62,0.00,,,0.00,Wunderground v.1.15,2013-10-14 10:16:00,
2013-10-14 13:26:00,81.6,66.4,29.90,West,280,3.0,4.0,60,0.00,,,0.00,Wunderground v.1.15,2013-10-14 10:26:00,
2013-10-14 13:36:00,82.1,65.9,29.89,West,263,4.0,4.0,58,0.00,,,0.00,Wunderground v.1.15,2013-10-14 10:36:00,
2013-10-14 13:46:00,82.5,65.7,29.89,West,277,4.0,5.0,57,0.00,,,0.00,Wunderground v.1.15,2013-10-14 10:46:00,
2013-10-14 13:56:00,82.5,65.2,29.90,West,269,4.0,5.0,56,0.00,,,0.00,Wunderground v.1.15,2013-10-14 10:56:00,
2013-10-14 14:06:00,82.2,64.9,29.89,WNW,282,4.0,4.0,56,0.00,,,0.00,Wunderground v.1.15,2013-10-14 11:06:00,
2013-10-14 14:16:00,82.3,65.5,29.89,West,279,4.0,4.0,57,0.00,,,0.00,Wunderground v.1.15,2013-10-14 11:16:00,
2013-10-14 14:26:00,82.3,65.5,29.89,West,273,4.0,4.0,57,0.00,,,0.00,Wunderground v.1.15,2013-10-14 11:26:00,
2013-10-14 14:36:00,81.8,66.1,30.23,West,264,5.0,5.0,59,0.00,,,0.00,Wunderground v.1.15,2013-10-14 11:36:00,
2013-10-14 14:46:00,81.8,66.1,30.27,NW,304,5.0,5.0,59,0.00,,,0.00,Wunderground v.1.15,2013-10-14 11:46:00,
2013-10-14 14:56:00,81.5,65.8,30.15,WNW,284,5.0,5.0,59,0.00,,,0.00,Wunderground v.1.15,2013-10-14 11:56:00,
2013-10-14 15:06:00,81.6,65.4,30.23,West,260,5.0,5.0,58,0.00,,,0.00,Wunderground v.1.15,2013-10-14 12:06:00,
2013-10-14 15:16:00,81.1,65.4,30.29,West,275,5.0,6.0,59,0.00,,,0.00,Wunderground v.1.15,2013-10-14 12:16:00,
2013-10-14 15:26:00,80.7,66.0,30.29,West,259,5.0,5.0,61,0.00,,,0.00,Wunderground v.1.15,2013-10-14 12:26:00,
2013-10-14 15:36:00,81.2,66.0,30.40,WNW,286,4.0,5.0,60,0.00,,,0.00,Wunderground v.1.15,2013-10-14 12:36:00,
2013-10-14 15:46:00,81.1,65.9,30.04,WNW,282,5.0,5.0,60,0.00,,,0.00,Wunderground v.1.15,2013-10-14 12:46:00,
2013-10-14 15:56:00,80.9,66.2,30.06,NW,306,4.0,4.0,61,0.00,,,0.00,Wunderground v.1.15,2013-10-14 12:56:00,
2013-10-14 16:06:00,80.7,66.9,30.06,NW,304,4.0,4.0,63,0.00,,,0.00,Wunderground v.1.15,2013-10-14 13:06:00,
2013-10-14 16:16:00,80.4,66.2,30.11,WNW,288,4.0,4.0,62,0.00,,,0.00,Wunderground v.1.15,2013-10-14 13:16:00,
2013-10-14 16:26:00,80.3,67.5,30.18,WNW,292,4.0,5.0,65,0.00,,,0.00,Wunderground v.1.15,2013-10-14 13:26:00,
2013-10-14 16:36:00,79.9,67.1,30.24,WNW,299,4.0,4.0,65,0.00,,,0.00,Wunderground v.1.15,2013-10-14 13:36:00,
2013-10-14 16:46:00,79.3,67.0,30.30,WNW,303,4.0,6.0,66,0.00,,,0.00,Wunderground v.1.15,2013-10-14 13:46:00,
2013-10-14 16:56:00,78.9,67.4,30.30,WNW,287,4.0,5.0,68,0.00,,,0.00,Wunderground v.1.15,2013-10-14 13:56:00,
2013-10-14 17:06:00,78.7,66.8,30.05,WNW,303,3.0,4.0,67,0.00,,,0.00,Wunderground v.1.15,2013-10-14 14:06:00,
2013-10-14 17:16:00,78.3,67.3,29.93,WNW,298,3.0,7.0,69,0.00,,,0.00,Wunderground v.1.15,2013-10-14 14:16:00,
2013-10-14 17:26:00,77.7,67.1,29.93,WNW,292,3.0,3.0,70,0.00,,,0.00,Wunderground v.1.15,2013-10-14 14:26:00,
2013-10-14 17:36:00,77.5,66.9,29.91,WNW,302,2.0,3.0,70,0.00,,,0.00,Wunderground v.1.15,2013-10-14 14:36:00,
2013-10-14 17:46:00,77.1,66.6,30.02,WNW,300,2.0,3.0,70,0.00,,,0.00,Wunderground v.1.15,2013-10-14 14:46:00,
2013-10-14 17:56:00,76.5,66.0,30.02,WNW,301,2.0,2.0,70,0.00,,,0.00,Wunderground v.1.15,2013-10-14 14:56:00,
2013-10-14 18:06:00,76.0,65.9,29.92,WNW,300,1.0,1.0,71,0.00,,,0.00,Wunderground v.1.15,2013-10-14 15:06:00,
2013-10-14 18:16:00,75.5,65.8,29.92,WNW,300,0.0,0.0,72,0.00,,,0.00,Wunderground v.1.15,2013-10-14 15:16:00,
2013-10-14 18:26:00,75.0,65.8,29.92,WNW,300,0.0,0.0,73,0.00,,,0.00,Wunderground v.1.15,2013-10-14 15:26:00,
2013-10-14 18:36:00,74.5,65.7,29.93,WNW,300,0.0,0.0,74,0.00,,,0.00,Wunderground v.1.15,2013-10-14 15:36:00,
2013-10-14 18:46:00,74.0,65.6,29.93,WNW,300,0.0,0.0,75,0.00,,,0.00,Wunderground v.1.15,2013-10-14 15:46:00,
2013-10-14 18:56:00,73.6,65.6,29.93,WNW,300,0.0,0.0,76,0.00,,,0.00,Wunderground v.1.15,2013-10-14 15:56:00,
2013-10-14 19:06:00,73.1,65.1,29.94,WNW,300,0.0,0.0,76,0.00,,,0.00,Wunderground v.1.15,2013-10-14 16:06:00,
2013-10-14 19:16:00,72.6,65.0,29.94,WNW,300,0.0,0.0,77,0.00,,,0.00,Wunderground v.1.15,2013-10-14 16:16:00,
2013-10-14 19:26:00,72.1,64.9,29.95,WNW,300,0.0,0.0,78,0.00,,,0.00,Wunderground v.1.15,2013-10-14 16:26:00,
2013-10-14 19:36:00,71.6,64.7,29.95,WNW,300,0.0,0.0,79,0.00,,,0.00,Wunderground v.1.15,2013-10-14 16:36:00,
2013-10-14 19:46:00,71.2,64.7,29.95,WNW,300,0.0,0.0,80,0.00,,,0.00,Wunderground v.1.15,2013-10-14 16:46:00,
2013-10-14 19:56:00,70.8,64.3,29.96,WNW,300,0.0,0.0,80,0.00,,,0.00,Wunderground v.1.15,2013-10-14 16:56:00,
2013-10-14 20:06:00,70.5,64.4,29.96,WNW,300,0.0,0.0,81,0.00,,,0.00,Wunderground v.1.15,2013-10-14 17:06:00,
2013-10-14 20:16:00,70.2,64.1,29.97,WNW,300,0.0,0.0,81,0.00,,,0.00,Wunderground v.1.15,2013-10-14 17:16:00,
2013-10-14 20:26:00,69.7,63.6,29.97,WNW,300,0.0,0.0,81,0.00,,,0.00,Wunderground v.1.15,2013-10-14 17:26:00,
2013-10-14 20:36:00,69.2,63.1,29.97,WNW,300,0.0,0.0,81,0.00,,,0.00,Wunderground v.1.15,2013-10-14 17:36:00,
2013-10-14 20:46:00,68.8,62.7,29.97,WNW,300,0.0,0.0,81,0.00,,,0.00,Wunderground v.1.15,2013-10-14 17:46:00,
2013-10-14 20:56:00,68.5,62.4,30.02,WNW,300,0.0,0.0,81,0.00,,,0.00,Wunderground v.1.15,2013-10-14 17:56:00,
2013-10-14 21:06:00,68.3,62.6,30.00,WNW,300,0.0,0.0,82,0.00,,,0.00,Wunderground v.1.15,2013-10-14 18:06:00,
2013-10-14 21:16:00,68.0,62.6,29.98,WNW,300,0.0,0.0,83,0.00,,,0.00,Wunderground v.1.15,2013-10-14 18:16:00,
2013-10-14 21:26:00,67.5,62.2,29.98,WNW,300,0.0,0.0,83,0.00,,,0.00,Wunderground v.1.15,2013-10-14 18:26:00,
2013-10-14 21:36:00,67.0,61.7,30.04,WNW,300,0.0,0.0,83,0.00,,,0.00,Wunderground v.1.15,2013-10-14 18:36:00,
2013-10-14 21:46:00,66.3,60.3,30.04,WNW,300,0.0,0.0,81,0.00,,,0.00,Wunderground v.1.15,2013-10-14 18:46:00,
2013-10-14 21:56:00,65.7,60.1,30.11,WNW,300,0.0,0.0,82,0.00,,,0.00,Wunderground v.1.15,2013-10-14 18:56:00,
2013-10-14 22:06:00,65.2,59.2,30.25,WNW,300,0.0,0.0,81,0.00,,,0.00,Wunderground v.1.15,2013-10-14 19:06:00,
2013-10-14 22:16:00,64.8,58.8,30.19,WNW,300,0.0,0.0,81,0.00,,,0.00,Wunderground v.1.15,2013-10-14 19:16:00,
2013-10-14 22:26:00,64.5,58.2,30.42,WNW,300,0.0,0.0,80,0.00,,,0.00,Wunderground v.1.15,2013-10-14 19:26:00,
2013-10-14 22:36:00,64.3,57.6,29.99,WNW,300,0.0,0.0,79,0.00,,,0.00,Wunderground v.1.15,2013-10-14 19:36:00,
2013-10-14 22:46:00,64.3,58.0,30.15,WNW,300,0.0,0.0,80,0.00,,,0.00,Wunderground v.1.15,2013-10-14 19:46:00,
2013-10-14 22:56:00,64.1,57.8,29.99,WNW,300,0.0,0.0,80,0.00,,,0.00,Wunderground v.1.15,2013-10-14 19:56:00,
2013-10-14 23:06:00,63.9,58.0,29.99,WNW,300,0.0,0.0,81,0.00,,,0.00,Wunderground v.1.15,2013-10-14 20:06:00,
2013-10-14 23:16:00,64.2,58.6,29.99,WNW,300,0.0,0.0,82,0.00,,,0.00,Wunderground v.1.15,2013-10-14 20:16:00,
2013-10-14 23:26:00,64.5,59.2,30.00,WNW,300,0.0,0.0,83,0.00,,,0.00,Wunderground v.1.15,2013-10-14 20:26:00,
2013-10-14 23:36:00,64.9,60.3,29.99,WNW,300,0.0,0.0,85,0.00,,,0.00,Wunderground v.1.15,2013-10-14 20:36:00,
2013-10-14 23:46:00,64.6,60.0,29.99,WNW,300,0.0,0.0,85,0.00,,,0.00,Wunderground v.1.15,2013-10-14 20:46:00,
2013-10-14 23:56:00,63.7,58.8,29.99,WNW,300,0.0,0.0,84,0.00,,,0.00,Wunderground v.1.15,2013-10-14 20:56:00,